Volver al catálogo

KHORS NO. 3

ActivoRadioaficionadoSSO
NORAD 61753·PAYLOAD·🇷🇺 Russia
Este nombre de satélite aún no ha sido confirmado por fuentes oficiales.

Lanzado Nov 4, 2024 desde Vostochny Cosmodrome

Loading…

Próximos Pases (próximas 24 horas)

TLE

ActualizadoSource: Space-Track

Época: Sep 14, 2026, 22:27 UTC

1 61753U 24199U   26257.93584569  .00049073  00000-0  57177-3 0  9991
2 61753  97.2796 135.9055 0003113 332.4619  27.6474 15.61530461151535

Sigue KHORS NO. 3 en tiempo real con AllMySat

Download on the App Store